EN

Hourly Weather Amen

Today, 19 January, Tuesday

Time Temperature Precipitation Wind Pressure Humidity
00:00 +2°C° 0 mm 6 mps 762 mmHg 91%
01:00 +3°C° 0 mm 7 mps 761 mmHg 90%
02:00 +3°C° 0 mm 7 mps 760 mmHg 90%
03:00 +2°C° 0 mm 8 mps 759 mmHg 89%
04:00 +3°C° 0.4 mm 9 mps 758 mmHg 89%
05:00 +3°C° 0.4 mm 9 mps 757 mmHg 89%
06:00 +3°C° 0 mm 9 mps 757 mmHg 88%
07:00 +5°C° 0.9 mm 9 mps 757 mmHg 89%
08:00 +5°C° 0.9 mm 9 mps 757 mmHg 90%
09:00 +5°C° 0.9 mm 9 mps 756 mmHg 91%
10:00 +6°C° 0.2 mm 8 mps 757 mmHg 90%
11:00 +7°C° 0.2 mm 8 mps 757 mmHg 88%
12:00 +8°C° 0 mm 7 mps 757 mmHg 86%
13:00 +8°C° 0 mm 7 mps 756 mmHg 85%
14:00 +8°C° 0 mm 7 mps 755 mmHg 85%
15:00 +6°C° 0 mm 7 mps 755 mmHg 84%
16:00 +6°C° 0 mm 7 mps 755 mmHg 85%
17:00 +6°C° 0 mm 7 mps 754 mmHg 86%
18:00 +5°C° 0 mm 7 mps 754 mmHg 86%
19:00 +5°C° 0 mm 7 mps 754 mmHg 87%
20:00 +5°C° 0 mm 7 mps 753 mmHg 87%
21:00 +5°C° 0 mm 8 mps 752 mmHg 87%
22:00 +5°C° 0.1 mm 8 mps 752 mmHg 85%
23:00 +5°C° 0.1 mm 8 mps 752 mmHg 83%

Tomorrow, 20 January, Wednesday

Time Temperature Precipitation Wind Pressure Humidity
00:00 +5°C° 0.1 mm 9 mps 751 mmHg 80%
01:00 +5°C° 0.1 mm 9 mps 750 mmHg 79%
02:00 +6°C° 0.1 mm 8 mps 750 mmHg 78%
03:00 +6°C° 0.1 mm 8 mps 749 mmHg 77%
04:00 +6°C° 0.1 mm 8 mps 749 mmHg 79%
05:00 +5°C° 0.1 mm 8 mps 749 mmHg 81%
06:00 +5°C° 0.1 mm 8 mps 748 mmHg 83%
07:00 +5°C° 0.3 mm 8 mps 748 mmHg 82%
08:00 +5°C° 0.3 mm 8 mps 748 mmHg 80%
09:00 +5°C° 0.3 mm 8 mps 748 mmHg 79%
10:00 +5°C° 0 mm 9 mps 747 mmHg 75%
11:00 +6°C° 0 mm 9 mps 747 mmHg 71%
12:00 +7°C° 0 mm 10 mps 746 mmHg 67%
13:00 +7°C° 0 mm 9 mps 745 mmHg 68%
14:00 +7°C° 0 mm 9 mps 745 mmHg 69%
15:00 +7°C° 0 mm 8 mps 744 mmHg 70%
16:00 +7°C° 0 mm 9 mps 743 mmHg 71%
17:00 +6°C° 0 mm 9 mps 743 mmHg 72%
18:00 +6°C° 0 mm 9 mps 743 mmHg 73%
19:00 +6°C° 0 mm 10 mps 742 mmHg 73%
20:00 +6°C° 0 mm 10 mps 741 mmHg 74%
21:00 +6°C° 0 mm 10 mps 740 mmHg 75%
22:00 +7°C° 0.2 mm 11 mps 739 mmHg 77%
23:00 +7°C° 0.2 mm 12 mps 738 mmHg 78%

Day after tomorrow, 21 January, Thursday

Time Temperature Precipitation Wind Pressure Humidity
00:00 +8°C° 0.2 mm 13 mps 737 mmHg 80%
01:00 +7°C° 2.2 mm 12 mps 738 mmHg 79%
02:00 +6°C° 2.2 mm 10 mps 738 mmHg 79%
03:00 +5°C° 2.2 mm 9 mps 739 mmHg 78%
04:00 +4°C° 0 mm 8 mps 740 mmHg 79%
05:00 +4°C° 0 mm 8 mps 741 mmHg 80%
06:00 +3°C° 0 mm 7 mps 742 mmHg 81%
07:00 +3°C° 0 mm 7 mps 742 mmHg 81%
08:00 +2°C° 0 mm 8 mps 743 mmHg 81%
09:00 +2°C° 0 mm 8 mps 743 mmHg 81%
10:00 +3°C° 0 mm 9 mps 743 mmHg 78%
11:00 +5°C° 0 mm 9 mps 743 mmHg 75%
12:00 +6°C° 0 mm 9 mps 743 mmHg 72%
13:00 +6°C° 0 mm 9 mps 741 mmHg 73%
14:00 +6°C° 0 mm 8 mps 740 mmHg 74%
15:00 +6°C° 0 mm 8 mps 739 mmHg 76%
16:00 +6°C° 1.7 mm 8 mps 738 mmHg 80%
17:00 +6°C° 1.7 mm 9 mps 736 mmHg 85%
18:00 +7°C° 1.7 mm 10 mps 735 mmHg 89%
19:00 +6°C° 1.2 mm 9 mps 735 mmHg 90%
20:00 +5°C° 1.2 mm 9 mps 735 mmHg 91%
21:00 +4°C° 1.2 mm 8 mps 735 mmHg 92%
22:00 +4°C° 0.2 mm 7 mps 736 mmHg 89%
23:00 +4°C° 0.2 mm 7 mps 738 mmHg 86%

22 January, Friday

Time Temperature Precipitation Wind Pressure Humidity
00:00 +4°C° 0.2 mm 6 mps 739 mmHg 83%
01:00 +3°C° 0 mm 6 mps 740 mmHg 83%
02:00 +3°C° 0 mm 6 mps 740 mmHg 84%
03:00 +3°C° 0 mm 6 mps 741 mmHg 84%
04:00 +2°C° 0 mm 6 mps 742 mmHg 85%
05:00 +2°C° 0 mm 5 mps 742 mmHg 86%
06:00 +2°C° 0 mm 5 mps 743 mmHg 88%
07:00 +2°C° 0 mm 5 mps 743 mmHg 88%
08:00 +2°C° 0 mm 5 mps 743 mmHg 89%
09:00 +2°C° 0 mm 5 mps 743 mmHg 89%
10:00 +3°C° 0 mm 5 mps 743 mmHg 86%
11:00 +5°C° 0 mm 5 mps 744 mmHg 83%
12:00 +5°C° 0 mm 5 mps 744 mmHg 80%
13:00 +5°C° 0.1 mm 5 mps 744 mmHg 81%
14:00 +5°C° 0.1 mm 4 mps 743 mmHg 81%
15:00 +5°C° 0.1 mm 4 mps 743 mmHg 81%
16:00 +5°C° 0.1 mm 4 mps 743 mmHg 84%
17:00 +4°C° 0.1 mm 3 mps 743 mmHg 86%
18:00 +4°C° 0.1 mm 3 mps 744 mmHg 88%
19:00 +3°C° 0 mm 4 mps 743 mmHg 88%
20:00 +3°C° 0 mm 4 mps 743 mmHg 87%
21:00 +2°C° 0 mm 5 mps 743 mmHg 87%
22:00 +2°C° 0 mm 5 mps 743 mmHg 86%
23:00 +2°C° 0 mm 6 mps 743 mmHg 86%

23 January, Saturday

Time Temperature Precipitation Wind Pressure Humidity
00:00 +1°C° 0 mm 6 mps 743 mmHg 86%
01:00 +1°C° 0 mm 6 mps 743 mmHg 88%
02:00 +1°C° 0 mm 5 mps 743 mmHg 89%
03:00 +1°C° 0 mm 5 mps 743 mmHg 90%
04:00 +1°C° 0.7 mm 4 mps 743 mmHg 91%
05:00 +2°C° 0.7 mm 3 mps 744 mmHg 93%
06:00 +2°C° 0.7 mm 3 mps 744 mmHg 94%
07:00 +3°C° 0.2 mm 2 mps 744 mmHg 93%
08:00 +3°C° 0.2 mm 2 mps 744 mmHg 92%
09:00 +3°C° 0.2 mm 2 mps 744 mmHg 91%
10:00 +4°C° 0 mm 2 mps 744 mmHg 89%
11:00 +5°C° 0 mm 1 mps 745 mmHg 86%
12:00 +6°C° 0 mm 1 mps 745 mmHg 83%
13:00 +6°C° 0.2 mm 1 mps 745 mmHg 82%
14:00 +6°C° 0.2 mm 1 mps 745 mmHg 80%
15:00 +6°C° 0.2 mm 1 mps 745 mmHg 78%
16:00 +4°C° 0.1 mm 2 mps 745 mmHg 81%
17:00 +3°C° 0.1 mm 2 mps 746 mmHg 84%
18:00 +2°C° 0.1 mm 2 mps 746 mmHg 87%
19:00 +2°C° 0.1 mm 2 mps 746 mmHg 88%
20:00 +1°C° 0.1 mm 2 mps 747 mmHg 89%
21:00 0°C° 0.1 mm 3 mps 747 mmHg 89%
22:00 0°C° 0 mm 3 mps 747 mmHg 89%
23:00 +1°C° 0 mm 2 mps 747 mmHg 89%

24 January, Sunday

Time Temperature Precipitation Wind Pressure Humidity
00:00 +1°C° 0 mm 2 mps 748 mmHg 88%
01:00 -1°C° 0 mm 2 mps 748 mmHg 89%
02:00 -1°C° 0 mm 3 mps 748 mmHg 89%
03:00 -1°C° 0 mm 3 mps 747 mmHg 89%
04:00 0°C° 0 mm 3 mps 747 mmHg 88%
05:00 -1°C° 0 mm 4 mps 747 mmHg 88%
06:00 -1°C° 0 mm 5 mps 747 mmHg 87%
07:00 0°C° 1.1 mm 5 mps 746 mmHg 88%
08:00 0°C° 1.1 mm 5 mps 746 mmHg 90%
09:00 +1°C° 1.1 mm 6 mps 746 mmHg 91%
10:00 +1°C° 0.1 mm 6 mps 747 mmHg 84%
11:00 +2°C° 0.1 mm 7 mps 747 mmHg 77%
12:00 +2°C° 0.1 mm 7 mps 747 mmHg 69%
13:00 +2°C° 0.1 mm 7 mps 748 mmHg 70%
14:00 +2°C° 0.1 mm 6 mps 748 mmHg 71%
15:00 +2°C° 0.1 mm 6 mps 748 mmHg 72%
16:00 +2°C° 0.3 mm 7 mps 748 mmHg 78%
17:00 0°C° 0.3 mm 8 mps 748 mmHg 84%
18:00 0°C° 0.3 mm 9 mps 749 mmHg 90%
19:00 +1°C° 0.4 mm 8 mps 749 mmHg 87%
20:00 +1°C° 0.4 mm 8 mps 749 mmHg 84%
21:00 +1°C° 0.4 mm 8 mps 749 mmHg 80%
22:00 +2°C° 0 mm 7 mps 750 mmHg 81%
23:00 0°C° 0 mm 7 mps 750 mmHg 81%
Show more